SVA1550 OEDF-OETB

Flight info

Callsign SVA1550
Flight time 2h 2m
Altitude 36000
Route TAYMA2G TAYMA N697 BPN H999 HIL N697 NABEK DCT
Aircraft A320/M-SDE3FGHIRWY/LB1

Departure

Time 2026-05-05 18:54
Airport King Fahd International Airport (OEDF)

Arrival

Time 2026-05-05 20:56
Airport Prince Sultan bin Abdulaziz International Airport (OETB)
Time Latitude Longitude Altitude Speed Heading
2026-05-05 18:43 26.47034 49.79441 68 ft 0 kts 66°
2026-05-05 18:46 26.47031 49.79434 59 ft 2 kts 66°
2026-05-05 18:47 26.47024 49.79416 58 ft 2 kts 66°
2026-05-05 18:47 26.47017 49.79399 59 ft 2 kts 66°
2026-05-05 18:47 26.47009 49.79381 57 ft 3 kts 53°
2026-05-05 18:47 26.46997 49.79367 60 ft 3 kts 28°
2026-05-05 18:48 26.46980 49.79361 61 ft 3 kts 351°
2026-05-05 18:48 26.46968 49.79364 57 ft 0 kts 327°
2026-05-05 18:48 26.46971 49.79361 64 ft 4 kts 327°
2026-05-05 18:49 26.47001 49.79341 60 ft 7 kts 329°
2026-05-05 18:49 26.47021 49.79249 61 ft 13 kts 253°
2026-05-05 18:49 26.46995 49.79153 63 ft 12 kts 254°
2026-05-05 18:49 26.46979 49.79065 65 ft 11 kts 283°
2026-05-05 18:50 26.47066 49.79017 61 ft 23 kts 345°
2026-05-05 18:50 26.47230 49.78966 58 ft 25 kts 344°
2026-05-05 18:50 26.47403 49.78912 62 ft 27 kts 344°
2026-05-05 18:50 26.47583 49.78857 62 ft 28 kts 345°
2026-05-05 18:51 26.47774 49.78799 60 ft 29 kts 343°
2026-05-05 18:51 26.47973 49.78738 58 ft 30 kts 345°
2026-05-05 18:51 26.48180 49.78673 55 ft 31 kts 345°
2026-05-05 18:51 26.48393 49.78606 61 ft 32 kts 345°
2026-05-05 18:52 26.48612 49.78539 55 ft 33 kts 345°
2026-05-05 18:52 26.48755 49.78477 61 ft 16 kts 303°
2026-05-05 18:52 26.48741 49.78366 56 ft 14 kts 254°
2026-05-05 18:52 26.48716 49.78271 59 ft 12 kts 254°
2026-05-05 18:53 26.48681 49.78200 61 ft 10 kts 201°
2026-05-05 18:53 26.48615 49.78214 56 ft 9 kts 164°
2026-05-05 18:53 26.48534 49.78238 55 ft 26 kts 165°
2026-05-05 18:53 26.48113 49.78368 56 ft 96 kts 165°
2026-05-05 18:54 26.47293 49.78619 61 ft 149 kts 164°
2026-05-05 18:54 26.46164 49.78961 228 ft 179 kts 165°
2026-05-05 18:54 26.44955 49.79294 818 ft 178 kts 163°
2026-05-05 18:54 26.43775 49.79659 1367 ft 176 kts 163°
2026-05-05 18:55 26.42598 49.80033 1843 ft 180 kts 163°
2026-05-05 18:55 26.41316 49.80441 1999 ft 204 kts 163°
2026-05-05 18:55 26.39873 49.80891 2234 ft 227 kts 166°
2026-05-05 18:55 26.38233 49.80910 2493 ft 252 kts 195°
2026-05-05 18:56 26.36731 49.79836 3000 ft 268 kts 229°
2026-05-05 18:56 26.35873 49.77967 3654 ft 274 kts 246°
2026-05-05 18:56 26.35208 49.75975 4427 ft 275 kts 248°
2026-05-05 18:56 26.34575 49.73980 4837 ft 276 kts 249°
2026-05-05 18:57 26.33944 49.71971 4969 ft 275 kts 249°
2026-05-05 18:57 26.33309 49.69965 4999 ft 274 kts 248°
2026-05-05 18:57 26.32888 49.68644 5000 ft 273 kts 248°
2026-05-05 18:57 26.32141 49.66312 5002 ft 273 kts 248°
2026-05-05 18:58 26.31526 49.64317 4998 ft 274 kts 254°
2026-05-05 18:58 26.31341 49.62174 5000 ft 276 kts 272°
2026-05-05 18:58 26.31778 49.60070 5254 ft 285 kts 291°
2026-05-05 18:58 26.32724 49.58128 6094 ft 284 kts 297°
2026-05-05 18:59 26.33697 49.56244 6853 ft 284 kts 297°
2026-05-05 18:59 26.34692 49.54311 7582 ft 285 kts 297°
2026-05-05 18:59 26.35671 49.52406 7894 ft 286 kts 297°
2026-05-05 18:59 26.36660 49.50482 7977 ft 285 kts 297°
2026-05-05 19:00 26.37645 49.48574 7999 ft 284 kts 297°
2026-05-05 19:00 26.38633 49.46663 8000 ft 284 kts 297°
2026-05-05 19:00 26.39617 49.44756 8000 ft 284 kts 297°
2026-05-05 19:00 26.40601 49.42841 8002 ft 284 kts 297°
2026-05-05 19:01 26.41586 49.40930 8001 ft 284 kts 297°
2026-05-05 19:01 26.42568 49.39024 7996 ft 284 kts 297°
2026-05-05 19:01 26.43556 49.37109 7999 ft 284 kts 297°
2026-05-05 19:01 26.44544 49.35195 8000 ft 284 kts 297°
2026-05-05 19:02 26.45526 49.33290 8000 ft 284 kts 296°
2026-05-05 19:02 26.46495 49.31404 8002 ft 284 kts 296°
2026-05-05 19:02 26.47491 49.29460 7999 ft 284 kts 296°
2026-05-05 19:02 26.48459 49.27574 8004 ft 284 kts 296°
2026-05-05 19:03 26.49445 49.25658 8002 ft 284 kts 296°
2026-05-05 19:03 26.50430 49.23742 8050 ft 287 kts 296°
2026-05-05 19:03 26.51407 49.21782 8716 ft 290 kts 295°
2026-05-05 19:03 26.52376 49.19807 8941 ft 288 kts 295°
2026-05-05 19:04 26.53331 49.17850 8996 ft 287 kts 295°
2026-05-05 19:04 26.54283 49.15893 9012 ft 286 kts 295°
2026-05-05 19:04 26.55234 49.13939 8992 ft 286 kts 295°
2026-05-05 19:04 26.56184 49.11991 9002 ft 286 kts 295°
2026-05-05 19:05 26.57127 49.10063 9009 ft 286 kts 295°
2026-05-05 19:05 26.58079 49.08116 8999 ft 286 kts 295°
2026-05-05 19:05 26.59034 49.06164 9002 ft 286 kts 295°
2026-05-05 19:05 26.59991 49.04210 9002 ft 287 kts 295°
2026-05-05 19:06 26.60947 49.02260 9011 ft 287 kts 295°
2026-05-05 19:06 26.61912 49.00293 9164 ft 292 kts 295°
2026-05-05 19:06 26.62887 48.98304 9927 ft 292 kts 295°
2026-05-05 19:06 26.63875 48.96282 10331 ft 307 kts 295°
2026-05-05 19:07 26.64934 48.94105 10472 ft 330 kts 295°
2026-05-05 19:07 26.66065 48.91784 10593 ft 351 kts 296°
2026-05-05 19:07 26.67252 48.89359 10840 ft 366 kts 296°
2026-05-05 19:07 26.68490 48.86839 11343 ft 372 kts 296°
2026-05-05 19:08 26.69737 48.84297 11935 ft 375 kts 296°
2026-05-05 19:08 26.70999 48.81727 12550 ft 378 kts 296°
2026-05-05 19:08 26.72265 48.79145 13175 ft 381 kts 296°
2026-05-05 19:08 26.73544 48.76533 13765 ft 384 kts 296°
2026-05-05 19:09 26.74828 48.73901 14338 ft 386 kts 295°
2026-05-05 19:09 26.75857 48.71144 14920 ft 385 kts 284°
2026-05-05 19:09 26.76383 48.68211 15516 ft 384 kts 274°
2026-05-05 19:09 26.76427 48.65222 16123 ft 384 kts 267°
2026-05-05 19:10 26.76344 48.62235 16729 ft 386 kts 267°
2026-05-05 19:10 26.76262 48.59265 17341 ft 387 kts 267°
2026-05-05 19:10 26.76180 48.56204 17954 ft 389 kts 267°
2026-05-05 19:10 26.76104 48.53219 18462 ft 391 kts 267°
2026-05-05 19:11 26.76026 48.50170 18960 ft 393 kts 267°
2026-05-05 19:11 26.75946 48.47117 19444 ft 394 kts 267°
2026-05-05 19:11 26.75863 48.44042 19928 ft 396 kts 267°
2026-05-05 19:11 26.75779 48.40964 20387 ft 398 kts 266°
2026-05-05 19:12 26.75693 48.37863 20853 ft 399 kts 266°
2026-05-05 19:12 26.75604 48.34747 21308 ft 401 kts 266°
2026-05-05 19:12 26.75516 48.31628 21739 ft 403 kts 266°
2026-05-05 19:12 26.75428 48.28484 22168 ft 405 kts 266°
2026-05-05 19:13 26.75339 48.25369 22578 ft 406 kts 266°
2026-05-05 19:13 26.75246 48.22167 22979 ft 408 kts 266°
2026-05-05 19:13 26.75155 48.19025 23361 ft 410 kts 266°
2026-05-05 19:13 26.75066 48.15829 23694 ft 411 kts 266°
2026-05-05 19:14 26.74978 48.12636 24042 ft 412 kts 266°
2026-05-05 19:14 26.74888 48.09426 24374 ft 413 kts 266°
2026-05-05 19:14 26.74797 48.06222 24715 ft 413 kts 266°
2026-05-05 19:14 26.74703 48.03003 25047 ft 414 kts 266°
2026-05-05 19:15 26.74606 47.99779 25368 ft 415 kts 266°
2026-05-05 19:15 26.74509 47.96560 25681 ft 415 kts 266°
2026-05-05 19:15 26.74412 47.93326 25980 ft 416 kts 266°
2026-05-05 19:15 26.74314 47.90128 26265 ft 417 kts 266°
2026-05-05 19:16 26.74327 47.86845 26552 ft 419 kts 271°
2026-05-05 19:16 26.74497 47.83632 26817 ft 419 kts 271°
2026-05-05 19:16 26.74664 47.80380 27086 ft 420 kts 271°
2026-05-05 19:16 26.74828 47.77111 27340 ft 421 kts 271°
2026-05-05 19:17 26.74989 47.73838 27581 ft 421 kts 271°
2026-05-05 19:17 26.75152 47.70581 27946 ft 418 kts 271°
2026-05-05 19:17 26.75312 47.67341 28373 ft 415 kts 271°
2026-05-05 19:17 26.75469 47.64125 28771 ft 412 kts 271°
2026-05-05 19:18 26.75628 47.60937 29154 ft 410 kts 271°
2026-05-05 19:18 26.75789 47.57754 29539 ft 408 kts 271°
2026-05-05 19:18 26.75945 47.54587 29914 ft 406 kts 271°
2026-05-05 19:18 26.76092 47.51485 30221 ft 405 kts 271°
2026-05-05 19:19 26.76242 47.48342 30512 ft 404 kts 271°
2026-05-05 19:19 26.76390 47.45218 30817 ft 402 kts 270°
2026-05-05 19:19 26.76540 47.42092 31120 ft 401 kts 270°
2026-05-05 19:19 26.76692 47.38976 31424 ft 400 kts 270°
2026-05-05 19:20 26.77025 47.35888 31725 ft 402 kts 276°
2026-05-05 19:20 26.77503 47.32809 32018 ft 401 kts 275°
2026-05-05 19:20 26.77977 47.29749 32313 ft 400 kts 275°
2026-05-05 19:20 26.78452 47.26687 32618 ft 398 kts 275°
2026-05-05 19:21 26.78923 47.23634 32927 ft 397 kts 275°
2026-05-05 19:21 26.79388 47.20601 33243 ft 396 kts 275°
2026-05-05 19:21 26.79847 47.17608 33554 ft 394 kts 274°
2026-05-05 19:21 26.80311 47.14586 33857 ft 393 kts 274°
2026-05-05 19:22 26.80771 47.11583 34115 ft 392 kts 274°
2026-05-05 19:22 26.81229 47.08578 34372 ft 391 kts 274°
2026-05-05 19:22 26.81683 47.05589 34614 ft 390 kts 274°
2026-05-05 19:22 26.82137 47.02596 34857 ft 389 kts 274°
2026-05-05 19:23 26.82594 46.99610 35089 ft 388 kts 274°
2026-05-05 19:23 26.83050 46.96641 35320 ft 387 kts 274°
2026-05-05 19:23 26.83503 46.93669 35543 ft 386 kts 274°
2026-05-05 19:23 26.83956 46.90702 35767 ft 386 kts 274°
2026-05-05 19:24 26.84405 46.87752 35972 ft 385 kts 274°
2026-05-05 19:24 26.84850 46.84794 36109 ft 385 kts 274°
2026-05-05 19:24 26.85589 46.79851 36141 ft 388 kts 274°
2026-05-05 19:25 26.86485 46.73888 36143 ft 389 kts 274°
2026-05-05 19:25 26.87525 46.66946 36145 ft 389 kts 274°
2026-05-05 19:26 26.88268 46.61948 36146 ft 389 kts 273°
2026-05-05 19:26 26.89156 46.56007 36147 ft 389 kts 274°
2026-05-05 19:27 26.90049 46.50030 36157 ft 389 kts 274°
2026-05-05 19:27 26.90942 46.44051 36163 ft 389 kts 273°
2026-05-05 19:28 26.91823 46.38073 36166 ft 389 kts 273°
2026-05-05 19:28 26.92705 46.32090 36172 ft 389 kts 273°
2026-05-05 19:29 26.93590 46.26124 36175 ft 388 kts 273°
2026-05-05 19:29 26.94463 46.20204 36174 ft 387 kts 273°
2026-05-05 19:30 26.95332 46.14239 36173 ft 387 kts 273°
2026-05-05 19:30 26.96205 46.08291 36174 ft 387 kts 273°
2026-05-05 19:31 26.97082 46.02328 36174 ft 387 kts 273°
2026-05-05 19:31 26.97949 45.96371 36177 ft 387 kts 273°
2026-05-05 19:32 26.98809 45.90412 36180 ft 388 kts 273°
2026-05-05 19:32 26.99666 45.84488 36180 ft 388 kts 273°
2026-05-05 19:33 27.00531 45.78513 36181 ft 388 kts 273°
2026-05-05 19:33 27.01395 45.72547 36183 ft 388 kts 273°
2026-05-05 19:34 27.02254 45.66585 36184 ft 387 kts 272°
2026-05-05 19:35 27.03525 45.57643 36188 ft 387 kts 272°
2026-05-05 19:35 27.04377 45.51648 36185 ft 387 kts 272°
2026-05-05 19:36 27.05217 45.45735 36183 ft 387 kts 272°
2026-05-05 19:36 27.05991 45.39770 36185 ft 385 kts 271°
2026-05-05 19:37 27.06631 45.33807 36191 ft 385 kts 270°
2026-05-05 19:37 27.07258 45.27840 36198 ft 386 kts 271°
2026-05-05 19:38 27.07917 45.21858 36205 ft 386 kts 271°
2026-05-05 19:38 27.08577 45.15926 36210 ft 386 kts 271°
2026-05-05 19:39 27.09238 45.09957 36206 ft 386 kts 271°
2026-05-05 19:39 27.09897 45.03990 36198 ft 385 kts 271°
2026-05-05 19:40 27.10554 44.98016 36198 ft 385 kts 271°
2026-05-05 19:40 27.11203 44.92053 36192 ft 385 kts 270°
2026-05-05 19:41 27.11848 44.86090 36192 ft 385 kts 270°
2026-05-05 19:41 27.12497 44.80127 36190 ft 385 kts 270°
2026-05-05 19:42 27.13146 44.74149 36188 ft 385 kts 270°
2026-05-05 19:42 27.13785 44.68217 36129 ft 384 kts 270°
2026-05-05 19:42 27.14103 44.65244 35894 ft 383 kts 270°
2026-05-05 19:43 27.14418 44.62264 35915 ft 386 kts 270°
2026-05-05 19:43 27.15054 44.56280 35918 ft 387 kts 270°
2026-05-05 19:44 27.15690 44.50291 35922 ft 386 kts 270°
2026-05-05 19:44 27.16325 44.44301 35922 ft 386 kts 270°
2026-05-05 19:45 27.16965 44.38302 35924 ft 387 kts 270°
2026-05-05 19:45 27.17589 44.32306 35933 ft 387 kts 270°
2026-05-05 19:46 27.18204 44.26306 35935 ft 387 kts 270°
2026-05-05 19:46 27.18818 44.20351 35942 ft 386 kts 270°
2026-05-05 19:47 27.19434 44.14347 35942 ft 387 kts 270°
2026-05-05 19:47 27.20044 44.08352 35945 ft 386 kts 270°
2026-05-05 19:48 27.20658 44.02358 35946 ft 386 kts 270°
2026-05-05 19:48 27.21268 43.96367 35949 ft 386 kts 269°
2026-05-05 19:49 27.21864 43.90409 35953 ft 386 kts 269°
2026-05-05 19:49 27.22467 43.84424 35953 ft 386 kts 269°
2026-05-05 19:50 27.23062 43.78440 35950 ft 385 kts 269°
2026-05-05 19:50 27.23655 43.72456 35953 ft 386 kts 269°
2026-05-05 19:51 27.24255 43.66460 35959 ft 386 kts 269°
2026-05-05 19:51 27.24852 43.60472 35961 ft 386 kts 269°
2026-05-05 19:52 27.25442 43.54484 35968 ft 386 kts 269°
2026-05-05 19:52 27.26028 43.48527 35970 ft 386 kts 269°
2026-05-05 19:53 27.26615 43.42534 35973 ft 386 kts 269°
2026-05-05 19:53 27.27197 43.36538 35974 ft 386 kts 269°
2026-05-05 19:54 27.27775 43.30529 35974 ft 386 kts 269°
2026-05-05 19:54 27.28356 43.24529 35979 ft 386 kts 269°
2026-05-05 19:55 27.28931 43.18528 35984 ft 386 kts 269°
2026-05-05 19:55 27.29501 43.12523 35989 ft 387 kts 269°
2026-05-05 19:56 27.30067 43.06544 35994 ft 386 kts 269°
2026-05-05 19:56 27.30642 43.00543 35997 ft 386 kts 269°
2026-05-05 19:57 27.31212 42.94544 36002 ft 386 kts 269°
2026-05-05 19:57 27.31777 42.88545 35998 ft 386 kts 269°
2026-05-05 19:58 27.32340 42.82533 36002 ft 386 kts 269°
2026-05-05 19:58 27.32892 42.76532 36007 ft 386 kts 269°
2026-05-05 19:59 27.33449 42.70529 36012 ft 386 kts 269°
2026-05-05 19:59 27.34002 42.64525 36013 ft 386 kts 269°
2026-05-05 20:00 27.34555 42.58556 36014 ft 386 kts 269°
2026-05-05 20:00 27.35103 42.52557 36017 ft 386 kts 269°
2026-05-05 20:01 27.35647 42.46559 36018 ft 386 kts 269°
2026-05-05 20:01 27.36186 42.40561 36022 ft 385 kts 269°
2026-05-05 20:02 27.36722 42.34558 36024 ft 385 kts 269°
2026-05-05 20:02 27.37260 42.28566 36036 ft 385 kts 269°
2026-05-05 20:03 27.37792 42.22613 36039 ft 385 kts 269°
2026-05-05 20:03 27.38322 42.16619 36030 ft 385 kts 269°
2026-05-05 20:04 27.38852 42.10623 36045 ft 385 kts 269°
2026-05-05 20:04 27.39378 42.04634 36052 ft 385 kts 269°
2026-05-05 20:05 27.39901 41.98639 36066 ft 384 kts 269°
2026-05-05 20:05 27.40421 41.92656 36070 ft 384 kts 269°
2026-05-05 20:06 27.40938 41.86662 36078 ft 384 kts 269°
2026-05-05 20:06 27.41442 41.80723 36082 ft 384 kts 269°
2026-05-05 20:07 27.41955 41.74737 36080 ft 384 kts 269°
2026-05-05 20:07 27.42477 41.68753 36076 ft 386 kts 271°
2026-05-05 20:08 27.43639 41.62795 36073 ft 391 kts 275°
2026-05-05 20:08 27.44863 41.56837 36064 ft 390 kts 275°
2026-05-05 20:09 27.46082 41.50873 36063 ft 391 kts 275°
2026-05-05 20:09 27.47302 41.44912 36057 ft 391 kts 275°
2026-05-05 20:10 27.48513 41.38968 36053 ft 392 kts 275°
2026-05-05 20:10 27.49728 41.32992 36051 ft 392 kts 275°
2026-05-05 20:11 27.50941 41.27014 36049 ft 392 kts 275°
2026-05-05 20:11 27.52149 41.21037 36044 ft 391 kts 275°
2026-05-05 20:12 27.53359 41.15053 36041 ft 391 kts 275°
2026-05-05 20:12 27.54554 41.09114 36037 ft 391 kts 275°
2026-05-05 20:13 27.55756 41.03133 36038 ft 392 kts 275°
2026-05-05 20:13 27.56960 40.97150 36033 ft 392 kts 275°
2026-05-05 20:14 27.58160 40.91157 36032 ft 391 kts 275°
2026-05-05 20:14 27.59350 40.85176 36032 ft 391 kts 275°
2026-05-05 20:15 27.60537 40.79192 36033 ft 392 kts 275°
2026-05-05 20:15 27.61722 40.73203 36029 ft 391 kts 275°
2026-05-05 20:16 27.62901 40.67246 36028 ft 391 kts 275°
2026-05-05 20:16 27.64086 40.61256 36016 ft 392 kts 275°
2026-05-05 20:17 27.65266 40.55257 36016 ft 392 kts 275°
2026-05-05 20:17 27.66447 40.49258 36017 ft 392 kts 275°
2026-05-05 20:18 27.67622 40.43246 36016 ft 392 kts 274°
2026-05-05 20:18 27.68781 40.37287 36016 ft 392 kts 275°
2026-05-05 20:19 27.69958 40.31277 36013 ft 392 kts 275°
2026-05-05 20:19 27.71130 40.25269 36009 ft 392 kts 275°
2026-05-05 20:20 27.72297 40.19255 36008 ft 392 kts 274°
2026-05-05 20:20 27.73463 40.13236 36012 ft 393 kts 274°
2026-05-05 20:21 27.74622 40.07239 36013 ft 393 kts 274°
2026-05-05 20:21 27.75786 40.01204 36012 ft 394 kts 274°
2026-05-05 20:22 27.76947 39.95164 36016 ft 394 kts 274°
2026-05-05 20:22 27.78104 39.89123 36020 ft 394 kts 274°
2026-05-05 20:23 27.79254 39.83071 36020 ft 394 kts 274°
2026-05-05 20:23 27.80408 39.77029 36020 ft 394 kts 274°
2026-05-05 20:24 27.81560 39.70988 36020 ft 394 kts 274°
2026-05-05 20:24 27.82700 39.64986 36020 ft 394 kts 274°
2026-05-05 20:25 27.83849 39.58935 36024 ft 393 kts 274°
2026-05-05 20:25 27.84983 39.52899 36023 ft 393 kts 274°
2026-05-05 20:26 27.86113 39.46868 36020 ft 392 kts 274°
2026-05-05 20:26 27.87249 39.40841 36021 ft 392 kts 274°
2026-05-05 20:27 27.88373 39.34845 36013 ft 392 kts 274°
2026-05-05 20:27 27.89500 39.28819 36013 ft 392 kts 274°
2026-05-05 20:28 27.90621 39.22784 36010 ft 392 kts 274°
2026-05-05 20:28 27.91736 39.16771 36005 ft 391 kts 274°
2026-05-05 20:29 27.92857 39.10742 36007 ft 391 kts 274°
2026-05-05 20:29 27.94277 39.04763 36007 ft 397 kts 279°
2026-05-05 20:30 27.95931 38.98818 36009 ft 396 kts 279°
2026-05-05 20:30 27.97571 38.92913 36009 ft 396 kts 279°
2026-05-05 20:31 27.99216 38.86956 36010 ft 396 kts 279°
2026-05-05 20:31 28.00857 38.81006 36009 ft 396 kts 279°
2026-05-05 20:32 28.02503 38.75055 36011 ft 396 kts 279°
2026-05-05 20:32 28.04151 38.69065 36016 ft 396 kts 279°
2026-05-05 20:33 28.05790 38.63108 36018 ft 396 kts 279°
2026-05-05 20:33 28.07422 38.57161 36017 ft 396 kts 279°
2026-05-05 20:34 28.09054 38.51207 36015 ft 396 kts 279°
2026-05-05 20:34 28.10672 38.45280 36014 ft 396 kts 279°
2026-05-05 20:35 28.12292 38.39320 36007 ft 396 kts 279°
2026-05-05 20:35 28.13916 38.33360 36010 ft 396 kts 279°
2026-05-05 20:36 28.15540 38.27397 36017 ft 396 kts 279°
2026-05-05 20:36 28.17165 38.21423 36006 ft 396 kts 279°
2026-05-05 20:37 28.18504 38.16468 36009 ft 396 kts 279°
2026-05-05 20:37 28.20372 38.09526 36012 ft 396 kts 279°
2026-05-05 20:38 28.21981 38.03549 35999 ft 396 kts 279°
2026-05-05 20:38 28.22783 38.00567 35755 ft 397 kts 279°
2026-05-05 20:38 28.23319 37.98575 35600 ft 397 kts 279°
2026-05-05 20:38 28.24125 37.95581 35364 ft 398 kts 279°
2026-05-05 20:39 28.24935 37.92567 35131 ft 400 kts 279°
2026-05-05 20:39 28.25747 37.89543 34897 ft 401 kts 279°
2026-05-05 20:39 28.26557 37.86520 34672 ft 402 kts 279°
2026-05-05 20:39 28.27371 37.83477 34442 ft 403 kts 279°
2026-05-05 20:40 28.28185 37.80421 33907 ft 405 kts 280°
2026-05-05 20:40 28.29000 37.77362 33043 ft 406 kts 280°
2026-05-05 20:40 28.29818 37.74290 32173 ft 407 kts 281°
2026-05-05 20:40 28.30637 37.71215 31262 ft 409 kts 281°
2026-05-05 20:41 28.31464 37.68113 30374 ft 411 kts 281°
2026-05-05 20:41 28.32296 37.64991 29315 ft 415 kts 282°
2026-05-05 20:41 28.33132 37.61860 28247 ft 417 kts 282°
2026-05-05 20:41 28.33961 37.58746 27234 ft 418 kts 282°
2026-05-05 20:42 28.34799 37.55585 26136 ft 420 kts 282°
2026-05-05 20:42 28.35645 37.52394 25065 ft 423 kts 283°
2026-05-05 20:42 28.36494 37.49190 24041 ft 424 kts 283°
2026-05-05 20:42 28.37343 37.45987 22921 ft 425 kts 283°
2026-05-05 20:43 28.38197 37.42766 21934 ft 424 kts 283°
2026-05-05 20:43 28.39039 37.39582 21145 ft 419 kts 283°
2026-05-05 20:43 28.39871 37.36431 20357 ft 415 kts 283°
2026-05-05 20:43 28.40693 37.33313 19574 ft 412 kts 283°
2026-05-05 20:44 28.41512 37.30205 18809 ft 409 kts 283°
2026-05-05 20:44 28.42325 37.27110 18010 ft 407 kts 283°
2026-05-05 20:44 28.43129 37.24045 17247 ft 404 kts 283°
2026-05-05 20:44 28.43926 37.21002 16531 ft 400 kts 283°
2026-05-05 20:45 28.45494 37.15003 15168 ft 393 kts 283°
2026-05-05 20:45 28.46261 37.12074 14521 ft 390 kts 283°
2026-05-05 20:45 28.47029 37.09136 13885 ft 387 kts 283°
2026-05-05 20:46 28.47791 37.06212 13200 ft 378 kts 283°
2026-05-05 20:46 28.48520 37.03429 12604 ft 357 kts 283°
2026-05-05 20:46 28.49116 37.00700 12029 ft 354 kts 274°
2026-05-05 20:46 28.48998 36.97941 11447 ft 349 kts 256°
2026-05-05 20:47 28.48118 36.95453 11028 ft 328 kts 238°
2026-05-05 20:47 28.46725 36.93551 10901 ft 301 kts 223°
2026-05-05 20:47 28.45063 36.92246 10625 ft 285 kts 208°
2026-05-05 20:47 28.43235 36.91435 10394 ft 281 kts 202°
2026-05-05 20:48 28.41400 36.90687 10156 ft 275 kts 202°
2026-05-05 20:48 28.39656 36.89979 9939 ft 258 kts 202°
2026-05-05 20:48 28.38031 36.89321 9805 ft 239 kts 202°
2026-05-05 20:48 28.36496 36.88696 9681 ft 229 kts 202°
2026-05-05 20:49 28.35038 36.88100 9559 ft 223 kts 203°
2026-05-05 20:49 28.33581 36.87503 9428 ft 223 kts 202°
2026-05-05 20:49 28.32124 36.86909 9298 ft 222 kts 202°
2026-05-05 20:49 28.30688 36.86325 9159 ft 215 kts 202°
2026-05-05 20:50 28.29296 36.85760 9038 ft 212 kts 202°
2026-05-05 20:50 28.27911 36.85197 8919 ft 211 kts 202°
2026-05-05 20:50 28.26529 36.84635 8744 ft 212 kts 203°
2026-05-05 20:50 28.25186 36.83980 8462 ft 209 kts 214°
2026-05-05 20:51 28.24098 36.82909 8149 ft 207 kts 233°
2026-05-05 20:51 28.23383 36.81495 7816 ft 208 kts 251°
2026-05-05 20:51 28.23119 36.79869 7410 ft 214 kts 269°
2026-05-05 20:51 28.23370 36.78193 6944 ft 218 kts 290°
2026-05-05 20:52 28.24127 36.76738 6521 ft 218 kts 311°
2026-05-05 20:52 28.25141 36.75479 6131 ft 215 kts 313°
2026-05-05 20:52 28.26156 36.74222 5589 ft 218 kts 314°
2026-05-05 20:52 28.27171 36.72962 5180 ft 214 kts 315°
2026-05-05 20:53 28.28155 36.71739 4881 ft 206 kts 315°
2026-05-05 20:53 28.29078 36.70591 4639 ft 186 kts 315°
2026-05-05 20:53 28.29908 36.69559 4381 ft 169 kts 315°
2026-05-05 20:53 28.30659 36.68627 4177 ft 150 kts 314°
2026-05-05 20:54 28.31344 36.67775 3963 ft 143 kts 314°
2026-05-05 20:54 28.32005 36.66955 3787 ft 139 kts 314°
2026-05-05 20:54 28.32654 36.66148 3601 ft 138 kts 313°
2026-05-05 20:54 28.33290 36.65358 3423 ft 137 kts 314°
2026-05-05 20:55 28.33937 36.64554 3242 ft 139 kts 315°
2026-05-05 20:55 28.34587 36.63745 3056 ft 139 kts 315°
2026-05-05 20:55 28.35236 36.62939 2871 ft 138 kts 315°
2026-05-05 20:55 28.35872 36.62136 2672 ft 136 kts 315°
2026-05-05 20:56 28.36504 36.61351 2551 ft 128 kts 316°
2026-05-05 20:56 28.37010 36.60731 2528 ft 72 kts 312°
2026-05-05 20:56 28.37207 36.60486 2537 ft 32 kts 313°
2026-05-05 20:56 28.37353 36.60308 2537 ft 30 kts 313°
2026-05-05 20:57 28.37460 36.60174 2539 ft 20 kts 311°
2026-05-05 20:57 28.37527 36.60068 2536 ft 13 kts 288°
2026-05-05 20:57 28.37500 36.59975 2534 ft 12 kts 224°
2026-05-05 20:57 28.37442 36.59913 2535 ft 11 kts 223°
2026-05-05 20:58 28.37399 36.59886 2534 ft 5 kts 169°
2026-05-05 20:58 28.37380 36.59906 2540 ft 3 kts 135°
2026-05-05 20:58 28.37359 36.59930 2540 ft 4 kts 133°
2026-05-05 20:58 28.37339 36.59949 2534 ft 4 kts 152°
2026-05-05 20:59 28.37310 36.59944 2536 ft 4 kts 212°
2026-05-05 20:59 28.37293 36.59923 2534 ft 3 kts 226°
2026-05-05 20:59 28.37283 36.59912 2532 ft 1 kts 223°
2026-05-05 20:59 28.37277 36.59906 2533 ft 3 kts 222°
2026-05-05 21:00 28.37269 36.59899 2540 ft 0 kts 221°